Location: Home
(42.5358°N, 72.7383°W)
Time: 12:19:56
(UTC-05:00)

Explorer 7 - Pass Details

Date: 06 December 2021
Orbit: 483 x 674 km, 50.3° (Epoch: 20 January)

Event Time Altitude Azimuth Distance (km) Brightness Sun altitude
Rises 06:48:27 0° 278° (W) 2,799 - -3.7°
Exits shadow 06:49:20 - 281° (W) 2,472 9.5 -3.6°
Reaches altitude 10° 06:51:01 10° 290° (WNW) 1,863 8.9 -3.3°
Maximum altitude 06:54:44 29° 351° (N) 1,022 7.9 -2.7°
Drops below altitude 10° 06:58:15 10° 53° (NE) 1,765 9.8 -2.1°
Sets 07:00:38 0° 65° (ENE) 2,624 10.8 -1.8°
